Home > Weather > Dannenberg > Past weeks

Flag for Germany Past Weather in Dannenberg, Lower Saxony, Germany — Yesterday and Last 2 Weeks

Now
52 °F

Fog.


Feels Like: 51 °F
Forecast: 55 / 67 °F
Wind: 5 mph from Southwest

Location: Fassberg

Current Time: Jun 27, 2016 at 6:11:07 AM

Latest Report: Jun 27, 2016 at 5:20 AM


Visibility: 5 mi

Pressure: 30.04 "Hg

Humidity: 94%

Dew Point: 50 °F

Location of DannenbergLocation

Past Weather in Dannenberg — Graph

°F

Dannenberg Temperature Yesterday

Maximum temperature yesterday: 70 °F (at 6:20 PM)
Minimum temperature yesterday: 54 °F (at 5:20 AM)
Average temperature yesterday: 61 °F

High & Low Weather Summary for the Past Weeks

 TemperatureHumidityPressure
High90 °F (Jun 23, 3:20 PM)100% (Jun 14, 2:20 AM)30.24 "Hg (Jun 14, 2:20 AM)
Low41 °F (Jun 20, 5:20 AM)38% (Jun 20, 2:20 PM)29.45 "Hg (Jun 14, 3:20 PM)
Average62 °F79%29.87 "Hg
* Reported Jun 12 4:20 AM — Jun 27 4:20 AM, Dannenberg, Weather by CustomWeather, © 2016

Note: Actual official high and low records may vary slightly from our data, if they occured in-between our weather recording intervals... More about our weather records

Advertising

Dannenberg Weather History for the Previous 24 Hours

Scroll right to see more
 ConditionsComfort  
Time TempWeatherWind HumidityBarometerVisibility
4:20 AM
Mon, Jun 27
52 °FFog.6 mph94%30.04 "HgN/A
3:20 AM54 °FFog.3 mph88%30.04 "HgN/A
2:20 AM54 °FFog.6 mph88%30.04 "HgN/A
1:20 AM55 °FFog.6 mph88%30.04 "HgN/A
12:20 AM55 °FFog.5 mph88%30.04 "HgN/A
11:20 PM
Sun, Jun 26
57 °FPassing clouds.3 mph82%30.04 "HgN/A
10:20 PM61 °FPassing clouds.7 mph72%30.01 "HgN/A
9:20 PM63 °FPassing clouds.6 mph59%30.01 "HgN/A
8:20 PM66 °FScattered clouds.8 mph52%30.01 "HgN/A
7:20 PM68 °FScattered clouds.13 mph49%30.01 "HgN/A
6:20 PM70 °FScattered clouds.12 mph50%30.01 "HgN/A
5:20 PM68 °FBroken clouds.10 mph53%30.01 "HgN/A
4:20 PM68 °FBroken clouds.13 mph53%30.01 "HgN/A
3:20 PM68 °FBroken clouds.12 mph53%30.01 "HgN/A
2:20 PM68 °FScattered clouds.14 mph49%30.01 "HgN/A
1:20 PM66 °FPartly sunny.13 mph56%30.01 "HgN/A
12:20 PM64 °FScattered clouds.13 mph60%30.01 "HgN/A
11:20 AM64 °FScattered clouds.14 mph64%30.01 "HgN/A
10:20 AM63 °FScattered clouds.15 mph68%30.01 "HgN/A
9:20 AM61 °FScattered clouds.14 mph72%30.01 "HgN/A
8:50 AM59 °FScattered clouds.10 mph82%30.01 "Hg5 mi
8:20 AM59 °FFog.8 mph82%30.01 "Hg3 mi
7:20 AM55 °FFog.6 mph94%29.98 "Hg3 mi
6:20 AM54 °FFog.12 mph100%29.98 "Hg2 mi
Weather by CustomWeather, © 2016

See weather overviewHow to use our weather pages